Regional Weather Roundup
Issued by NWS Northern Indiana

Home | Current Version | Previous Version | Graphics & Text | Print | Product List | Glossary On
Versions: 1 2 3 4 5 6 7 8 9 10 11 12 13 14 15 16 17 18 19 20 21 22 23 24 25 26 27 28 29 30 31 32 33 34 35 36 37 38 39 40 41 42 43 44 45 46 47 48 49 50
000
ASUS43 KIWX 061100
RWRIWX

KIWX WEATHER ROUNDUP
NATIONAL WEATHER SERVICE NORTHERN INDIANA
600 AM EST FRI MAR 06 2015

NOTE: "FAIR" INDICATES FEW OR NO CLOUDS BELOW 12,000 FEET WITH NO
SIGNIFICANT WEATHER AND/OR OBSTRUCTIONS TO VISIBILITY.

* THESE STATIONS ARE NOT UNDER NWS QUALITY CONTROL. THEY ALSO MAY NOT
  REPORT WEATHER SUCH AS PRECIPITATION OR FOG.

INZ001>027-061200-
NORTHERN INDIANA

CITY           SKY/WX    TMP DP  RH WIND       PRES   REMARKS
GARY*          CLEAR      5  -4  66 S7        30.50F WCI  -7
SOUTH BEND     PTCLDY     1  -5  75 SW6       30.49R WCI -10
GOSHEN         PTCLDY     1  -6  72 S5        30.48F WCI  -9
MONTICELLO*    PTCLDY    -4  -7  86 S3        30.52S
ANGOLA*        CLEAR     -6 -18  54 CALM      30.45S
FORT WAYNE     PTCLDY    -2  -6  83 SW7       30.52R WCI -15
PERU/GRISSOM   MOCLDY    -3  -6  84 S5        30.50S WCI -13

$$
INZ028>050-061200-
CENTRAL INDIANA

CITY           SKY/WX    TMP DP  RH WIND       PRES   REMARKS
LAFAYETTE      MOCLDY    -6 -10  83 CALM      30.55R
KOKOMO*          N/A    N/A N/A N/A MISG        N/A
MUNCIE*        PTCLDY     4  -1  80 SW3       30.52R
INDIANAPOLIS   PTCLDY     5  -1  76 CALM      30.52S

$$
MIZ043>046-050>051-056>058-064>065-071>073-077>080-061200-
SOUTHWEST LOWER MICHIGAN

CITY           SKY/WX    TMP DP  RH WIND       PRES   REMARKS
BATTLE CREEK   PTCLDY     2  -3  80 SW6       30.44R WCI  -9
BENTON HARBOR  PTCLDY     3  -1  83 S8        30.48R WCI -10
COLDWATER*     CLOUDY     1  -3  81 SW3       30.45S
HILLSDALE*     PTCLDY     2  -2  83 SW3       30.43S
HOLLAND        CLOUDY     7   2  80 S8        30.44S WCI  -6
GRAND RAPIDS   PTCLDY     5   0  79 SW9       30.43S WCI  -9
KALAMAZOO      PTCLDY    -1  -5  82 S6        30.46R WCI -13
STURGIS*       MOCLDY     0  -4  85 CALM      30.46S
THREE RIVERS*  FAIR      -2  -6  82 S5        30.48S WCI -12

$$
OHZ001>008-015>018-024>025-061200-
NORTHWEST OHIO

CITY           SKY/WX    TMP DP  RH WIND       PRES   REMARKS
DEFIANCE       PTCLDY    -2  -7  79 S3        30.52R
FINDLAY        PTCLDY     4   0  83 S5        30.51R WCI  -5
TOLEDO EXPRESS PTCLDY    -3  -7  82 CALM      30.50S
TOLEDO METCALF PTCLDY     4  -3  73 SW3       30.53R
LIMA           PTCLDY     7   2  80 S6        30.50R WCI  -3

$$
AND FOR LAKE MICHIGAN COASTAL AND OPEN LAKE BUOY OBSERVATIONS

STATION/POSITION TEMP    WIND        PRES    VSBY  WAVE
                 AIR SEA DIR/SP/G                  HT/PER
                 (F)     (DEG/KT/KT) (MB)    (MI)  (FT/S)
CALUMET HARBOR     6     200/  5/  6 1030.8F
MICHIGAN CITY      5     180/ 10/ 11   N/A
SAINT JOSEPH       7     150/  6/ 13 1032.5R

$$
&&


USA.gov is the U.S. government's official web portal to all federal, state and local government web resources and services.